�N����,����,�~����,�C��,���x,�C��,����,���ϕ���,�ő�u�ԕ���,�ő厞����,���˗�,�I�_���x,�n�����x,�ő啗���N��,DTYPE
"19/07/20","00:10",0.0,23.3,95.4,1008.1,298.1,0.5,0.9,314.2,0.00,22.6,24.6,"00:09:12",1
"19/07/20","00:20",0.0,23.3,95.4,1007.8,278.5,0.6,1.0,324.1,0.00,22.6,24.6,"00:11:20",1
"19/07/20","00:30",0.0,23.3,95.5,1007.8,299.2,0.6,1.2,328.3,0.00,22.6,24.5,"00:22:40",1
"19/07/20","00:40",0.0,23.3,95.5,1007.6,328.8,0.5,1.0,306.6,0.00,22.6,24.8,"00:31:36",1
"19/07/20","00:50",0.0,23.2,95.5,1007.6,290.8,0.5,0.9,319.8,0.00,22.5,24.6,"00:46:32",1
"19/07/20","01:00",0.0,23.2,95.7,1007.6,315.3,0.6,1.0,318.6,0.00,22.5,24.5,"00:53:36",1
"19/07/20","01:10",0.0,23.2,95.7,1007.6,328.0,0.7,1.3,341.5,0.00,22.5,24.5,"01:02:00",1
"19/07/20","01:20",0.0,23.1,95.7,1007.6,286.8,0.3,0.6,239.5,0.00,22.4,24.7,"01:16:48",1
"19/07/20","01:30",0.0,23.1,95.8,1007.6,310.9,0.6,1.0,315.7,0.00,22.4,24.4,"01:24:00",1
"19/07/20","01:40",0.0,23.1,95.8,1007.4,309.7,0.6,0.9,319.2,0.00,22.4,24.6,"01:32:08",1
"19/07/20","01:50",0.0,23.1,95.9,1007.1,302.2,0.6,1.1,340.5,0.00,22.4,24.5,"01:45:36",1
"19/07/20","02:00",0.0,23.0,95.9,1007.4,261.9,0.5,1.0,265.2,0.00,22.4,24.6,"01:56:48",1
"19/07/20","02:10",0.0,23.0,95.9,1007.6,311.9,0.3,0.9,340.0,0.00,22.4,24.6,"02:00:48",1
"19/07/20","02:20",0.0,23.0,96.0,1007.4,285.4,0.3,0.8,265.7,0.00,22.4,24.4,"02:12:00",1
"19/07/20","02:30",0.0,23.0,96.1,1007.8,330.6,0.5,0.9,328.3,0.00,22.4,24.3,"02:27:12",1
"19/07/20","02:40",0.0,23.0,96.1,1007.1,317.9,0.7,1.0,329.8,0.00,22.4,24.2,"02:39:04",1
"19/07/20","02:50",0.0,23.0,96.0,1007.8,327.4,0.6,1.1,347.6,0.00,22.4,24.3,"02:42:08",1
"19/07/20","03:00",0.0,23.0,96.1,1008.1,271.4,0.5,0.8,272.5,0.00,22.4,24.4,"02:54:16",1
"19/07/20","03:10",0.0,22.9,96.1,1008.1,280.6,0.5,0.8,320.1,0.00,22.3,24.2,"03:02:16",1
"19/07/20","03:20",0.0,22.9,96.2,1008.3,314.6,0.6,1.0,329.8,0.00,22.3,24.3,"03:15:44",1
"19/07/20","03:30",0.0,22.9,96.2,1008.3,324.0,0.8,1.4,342.7,0.00,22.3,24.3,"03:22:56",1
"19/07/20","03:40",0.0,22.8,96.2,1008.3,309.3,0.5,0.8,317.8,0.00,22.2,24.3,"03:34:40",1
"19/07/20","03:50",0.0,22.8,96.3,1008.3,264.6,0.5,0.8,271.3,0.00,22.2,24.0,"03:41:44",1
"19/07/20","04:00",0.0,22.8,96.3,1008.8,289.1,0.5,0.9,309.7,0.00,22.2,24.1,"03:57:20",1
"19/07/20","04:10",0.0,22.8,96.4,1008.3,290.5,0.5,0.8,306.5,0.00,22.2,24.2,"04:07:44",1
"19/07/20","04:20",0.0,22.8,96.5,1008.3,310.8,0.6,1.0,304.3,0.00,22.3,24.2,"04:11:20",1
"19/07/20","04:30",0.0,22.9,96.4,1008.6,5.3,0.5,1.3,340.0,0.00,22.3,24.2,"04:20:56",1
"19/07/20","04:40",0.0,22.8,96.3,1008.8,298.2,0.5,0.6,298.5,0.00,22.2,24.1,"04:34:00",1
"19/07/20","04:50",0.0,22.8,96.5,1008.8,306.4,0.6,0.9,321.0,0.00,22.3,24.1,"04:40:56",1
"19/07/20","05:00",0.0,22.7,96.5,1008.8,273.3,0.5,0.8,265.7,0.00,22.2,24.0,"04:59:12",1
"19/07/20","05:10",0.0,22.7,96.6,1009.3,320.4,0.3,0.9,339.4,0.00,22.2,24.2,"05:09:12",1
"19/07/20","05:20",0.0,22.8,96.5,1009.3,293.5,0.3,0.9,338.0,0.00,22.3,24.2,"05:10:40",1
"19/07/20","05:30",0.0,22.7,96.5,1009.3,298.7,0.3,0.6,306.4,0.00,22.2,24.3,"05:20:16",1
"19/07/20","05:40",0.2,22.8,96.6,1009.3,284.6,0.5,0.8,280.9,0.00,22.3,24.0,"05:31:28",1
"19/07/20","05:50",0.0,22.8,96.5,1009.0,81.9,0.2,0.6,330.9,0.00,22.3,24.0,"05:41:04",1
"19/07/20","06:00",0.0,22.8,96.6,1009.3,311.8,0.2,0.6,312.5,0.00,22.3,24.1,"05:57:36",1
"19/07/20","06:10",0.0,22.9,96.6,1009.3,340.0,0.8,1.3,357.3,0.00,22.4,24.2,"06:03:44",1
"19/07/20","06:20",0.0,22.9,96.7,1009.3,306.9,0.5,1.1,336.7,0.00,22.4,24.2,"06:11:52",1
"19/07/20","06:30",0.0,22.9,96.6,1009.5,246.3,0.2,0.6,241.6,0.00,22.4,24.0,"06:21:12",1
"19/07/20","06:40",0.0,23.0,96.7,1009.5,1.1,0.1,0.6,321.7,0.00,22.5,24.1,"06:31:12",1
"19/07/20","06:50",0.0,23.1,96.6,1009.7,301.9,0.2,0.8,313.7,0.00,22.6,24.0,"06:48:56",1
"19/07/20","07:00",0.0,23.1,96.7,1009.7,321.3,0.7,0.9,319.6,0.01,22.6,24.2,"06:50:56",1
"19/07/20","07:10",0.0,23.3,96.6,1009.7,322.4,0.6,1.0,331.5,0.02,22.8,23.8,"07:06:40",1
"19/07/20","07:20",0.0,23.3,96.5,1009.7,337.9,0.3,0.8,334.3,0.02,22.8,23.9,"07:15:44",1
"19/07/20","07:30",0.0,23.5,96.6,1010.0,315.6,0.1,0.6,319.6,0.03,23.0,24.0,"07:29:12",1
"19/07/20","07:40",0.0,23.4,96.4,1009.7,250.5,0.1,0.4,252.0,0.03,22.8,24.3,"07:32:24",1
"19/07/20","07:50",0.0,23.5,96.3,1010.0,318.8,0.2,0.6,335.2,0.03,22.9,24.3,"07:48:00",1
"19/07/20","08:00",0.0,23.6,96.3,1010.0,339.3,0.5,1.0,339.4,0.04,23.0,24.1,"07:54:40",1
"19/07/20","08:10",0.0,23.7,96.4,1009.7,322.1,0.7,1.1,327.3,0.05,23.1,24.2,"08:05:44",1
"19/07/20","08:20",0.0,23.9,96.1,1009.7,300.4,0.3,0.8,328.7,0.05,23.3,24.1,"08:14:40",1
"19/07/20","08:30",0.0,23.9,96.0,1009.5,302.0,0.5,0.8,297.5,0.05,23.3,24.0,"08:21:52",1
"19/07/20","08:40",0.0,24.2,96.1,1009.7,326.3,0.3,0.8,312.3,0.06,23.6,24.5,"08:37:28",1
"19/07/20","08:50",0.0,24.2,96.0,1009.7,336.0,0.5,1.0,340.4,0.08,23.6,24.5,"08:44:48",1
"19/07/20","09:00",0.0,24.6,95.5,1009.5,316.3,0.5,0.9,329.8,0.10,23.9,24.2,"08:56:08",1
"19/07/20","09:10",0.0,24.8,95.3,1009.5,308.1,0.2,1.1,336.5,0.12,24.0,24.6,"09:04:48",1
"19/07/20","09:20",0.0,24.8,94.4,1009.5,260.7,0.3,0.8,247.6,0.12,23.9,24.7,"09:16:32",1
"19/07/20","09:30",0.0,25.1,93.4,1009.5,293.4,0.7,1.4,340.2,0.09,24.0,24.7,"09:25:20",1
"19/07/20","09:40",0.0,25.7,92.6,1010.0,309.4,0.3,0.8,302.9,0.11,24.4,24.7,"09:38:32",1
"19/07/20","09:50",0.0,25.6,90.7,1009.7,358.5,0.7,1.4,341.4,0.11,24.0,25.0,"09:40:56",1
"19/07/20","10:00",0.0,26.0,88.6,1009.7,114.6,0.2,0.9,110.4,0.11,24.0,25.0,"09:53:04",1
"19/07/20","10:10",0.0,26.1,87.6,1009.5,274.8,0.1,0.5,66.3,0.12,23.9,25.0,"10:09:20",1
"19/07/20","10:20",0.0,26.3,87.6,1009.5,298.0,0.3,1.1,236.5,0.12,24.1,25.2,"10:18:24",1
"19/07/20","10:30",0.0,26.5,87.1,1009.5,294.0,0.3,0.9,338.5,0.11,24.2,25.3,"10:25:12",1
"19/07/20","10:40",0.0,26.9,86.5,1009.3,333.6,0.2,0.6,332.2,0.12,24.5,25.2,"10:32:32",1
"19/07/20","10:50",0.0,26.8,85.5,1009.0,308.2,0.3,1.3,249.0,0.13,24.2,25.2,"10:47:20",1
"19/07/20","11:00",0.0,27.1,84.6,1009.0,288.9,0.2,0.9,249.5,0.14,24.3,25.3,"10:51:04",1
"19/07/20","11:10",0.0,27.2,84.0,1008.8,335.5,0.3,0.8,334.0,0.14,24.3,25.6,"11:01:04",1
"19/07/20","11:20",0.0,27.4,83.0,1008.3,52.1,0.5,1.1,110.5,0.13,24.3,25.5,"11:13:28",1
"19/07/20","11:30",0.0,27.5,83.5,1008.3,101.5,0.5,1.4,119.7,0.12,24.5,25.7,"11:22:24",1
"19/07/20","11:40",0.0,27.3,82.1,1008.3,81.7,0.6,1.7,27.1,0.12,24.0,25.7,"11:32:40",1
"19/07/20","11:50",0.0,27.7,82.2,1008.3,13.9,0.7,1.6,348.4,0.14,24.4,25.9,"11:49:52",1
"19/07/20","12:00",0.0,27.8,81.4,1008.1,33.0,0.6,1.1,8.0,0.16,24.4,25.7,"11:54:40",1
"19/07/20","12:10",0.0,27.8,80.8,1008.3,31.4,0.5,1.2,348.5,0.17,24.2,25.9,"12:07:52",1
"19/07/20","12:20",0.0,28.2,81.2,1008.1,9.7,0.6,1.7,348.8,0.15,24.7,25.9,"12:16:16",1
"19/07/20","12:30",0.0,27.9,80.5,1008.1,62.9,0.5,1.6,136.9,0.15,24.3,26.0,"12:28:40",1
"19/07/20","12:40",0.0,28.0,80.7,1007.8,124.4,0.8,1.7,108.2,0.14,24.4,26.0,"12:32:40",1
"19/07/20","12:50",0.0,28.1,80.4,1007.6,109.5,1.1,2.4,116.4,0.13,24.4,26.2,"12:41:44",1
"19/07/20","13:00",0.0,27.9,80.0,1007.6,129.3,0.6,1.8,139.1,0.13,24.2,26.2,"12:58:16",1
"19/07/20","13:10",0.0,28.1,80.3,1007.8,128.8,0.8,2.1,107.8,0.13,24.4,26.2,"13:06:08",1
"19/07/20","13:20",0.0,28.2,79.8,1007.6,15.9,0.5,1.3,105.7,0.14,24.4,26.0,"13:10:24",1
"19/07/20","13:30",0.0,28.3,79.4,1007.8,48.9,0.6,1.7,50.6,0.14,24.4,26.3,"13:28:00",1
"19/07/20","13:40",0.0,28.3,79.5,1007.6,32.2,0.8,1.7,356.9,0.13,24.5,26.3,"13:31:12",1
"19/07/20","13:50",0.0,28.3,80.0,1007.4,22.8,0.7,1.9,352.2,0.12,24.6,26.3,"13:47:52",1
"19/07/20","14:00",0.0,28.2,79.8,1007.4,26.7,0.8,1.7,339.1,0.12,24.4,26.7,"13:55:12",1
"19/07/20","14:10",0.0,28.4,79.8,1007.1,13.7,0.7,1.7,2.6,0.12,24.6,26.3,"14:04:32",1
"19/07/20","14:20",0.0,28.3,79.3,1007.1,23.6,0.8,1.9,356.6,0.11,24.4,26.4,"14:12:32",1
"19/07/20","14:30",0.0,28.3,79.7,1007.4,48.6,0.8,1.7,110.8,0.13,24.5,26.5,"14:20:02",1
"19/07/20","14:40",0.0,28.4,79.3,1006.9,64.4,0.8,1.8,66.3,0.13,24.5,26.6,"14:32:16",1
"19/07/20","14:50",0.0,28.5,79.0,1006.7,17.4,0.8,2.1,2.6,0.14,24.5,26.4,"14:48:24",1
"19/07/20","15:00",0.0,28.5,79.5,1006.9,73.6,0.3,1.4,38.5,0.13,24.6,26.5,"14:56:08",1
"19/07/20","15:10",0.0,28.3,78.0,1006.7,106.2,0.8,2.0,122.8,0.11,24.1,26.4,"15:09:40",1
"19/07/20","15:20",0.0,28.4,80.3,1006.7,121.6,0.8,1.6,129.5,0.10,24.7,26.7,"15:13:04",1
"19/07/20","15:30",0.0,28.3,79.1,1006.4,35.5,0.8,1.8,74.5,0.09,24.4,26.5,"15:20:02",1
"19/07/20","15:40",0.0,28.6,78.5,1006.4,4.7,0.6,1.2,83.2,0.08,24.5,26.6,"15:30:08",1
"19/07/20","15:50",0.0,28.8,78.2,1006.4,7.6,0.5,1.3,4.8,0.07,24.7,26.6,"15:45:28",1
"19/07/20","16:00",0.0,28.8,78.2,1006.0,6.6,0.5,1.1,79.2,0.05,24.7,26.6,"15:50:24",1
"19/07/20","16:10",0.0,28.6,78.9,1006.0,1.3,0.6,1.3,346.2,0.05,24.6,26.6,"16:09:04",1
"19/07/20","16:20",0.0,28.6,79.9,1006.2,359.9,0.7,1.2,359.7,0.05,24.8,26.7,"16:17:12",1
"19/07/20","16:30",0.0,28.6,81.5,1006.4,354.4,0.7,1.6,1.0,0.06,25.2,26.6,"16:24:32",1
"19/07/20","16:40",0.0,28.5,82.9,1006.4,344.4,0.6,1.4,322.8,0.05,25.3,26.5,"16:33:04",1
"19/07/20","16:50",0.0,28.0,83.0,1006.7,350.5,0.7,1.4,1.1,0.04,24.9,26.5,"16:40:40",1
"19/07/20","17:00",0.0,28.1,82.6,1006.7,352.0,0.3,1.1,346.1,0.04,24.9,26.6,"16:56:24",1
"19/07/20","17:10",0.0,28.2,83.1,1006.7,338.9,0.5,1.1,343.8,0.04,25.1,26.5,"17:02:56",1
"19/07/20","17:20",0.0,28.2,82.9,1006.2,346.0,0.6,1.2,338.9,0.03,25.1,26.4,"17:10:02",1
"19/07/20","17:30",0.0,28.0,83.6,1006.4,351.4,0.6,1.1,351.2,0.03,25.0,26.4,"17:21:44",1
"19/07/20","17:40",0.0,27.8,84.0,1006.7,352.6,0.3,1.0,341.7,0.02,24.9,26.3,"17:35:52",1
"19/07/20","17:50",0.0,27.5,83.9,1006.4,358.5,0.5,1.1,357.5,0.02,24.6,26.4,"17:46:40",1
"19/07/20","18:00",0.0,27.4,84.1,1006.4,354.1,0.6,1.4,355.1,0.01,24.5,26.3,"17:54:00",1
"19/07/20","18:10",0.0,27.6,84.3,1006.4,336.3,0.8,1.4,341.1,0.01,24.8,26.3,"18:07:28",1
"19/07/20","18:20",0.0,27.2,85.4,1006.4,332.4,1.1,1.9,344.5,0.01,24.6,26.2,"18:11:28",1
"19/07/20","18:30",0.0,26.7,85.8,1006.2,295.7,0.3,1.1,315.9,0.00,24.2,26.3,"18:20:08",1
"19/07/20","18:40",0.0,26.7,85.9,1006.2,15.1,0.2,1.0,347.3,0.00,24.2,26.2,"18:39:28",1
"19/07/20","18:50",0.0,26.7,85.8,1006.4,320.3,0.3,1.2,328.6,0.00,24.2,26.1,"18:46:48",1
"19/07/20","19:00",0.0,26.6,85.8,1006.7,314.2,0.3,1.1,329.4,0.00,24.1,26.3,"18:54:48",1
"19/07/20","19:10",0.0,26.6,86.0,1006.4,328.2,0.8,1.6,335.8,0.00,24.1,26.1,"19:09:28",1
"19/07/20","19:20",0.0,26.3,86.4,1006.9,328.6,1.0,1.6,316.1,0.00,23.9,26.1,"19:19:36",1
"19/07/20","19:30",0.0,26.2,87.2,1006.7,289.5,0.8,1.6,329.4,0.00,23.9,26.2,"19:20:24",1
"19/07/20","19:40",0.0,26.1,88.0,1006.9,300.3,0.6,0.9,307.7,0.00,24.0,26.0,"19:31:12",1
"19/07/20","19:50",0.0,25.9,88.4,1006.9,325.3,0.8,1.4,305.0,0.00,23.9,25.7,"19:40:56",1
"19/07/20","20:00",0.0,25.8,89.0,1006.9,327.3,0.6,1.2,339.8,0.00,23.9,25.7,"19:57:12",1
"19/07/20","20:10",0.0,25.6,89.7,1007.1,319.3,0.8,1.1,327.2,0.00,23.8,25.8,"20:00:24",1
"19/07/20","20:20",0.0,25.3,90.2,1006.9,306.2,0.6,1.0,333.2,0.00,23.6,25.8,"20:15:52",1
"19/07/20","20:30",0.0,25.2,90.6,1006.9,300.6,0.5,1.0,304.8,0.00,23.6,25.7,"20:23:36",1
"19/07/20","20:40",0.0,25.1,91.0,1007.6,331.6,0.5,1.1,340.3,0.00,23.6,25.6,"20:36:16",1
"19/07/20","20:50",0.0,25.0,91.1,1007.4,334.7,0.7,1.3,339.8,0.00,23.5,25.6,"20:41:36",1
"19/07/20","21:00",0.0,24.8,91.6,1007.6,310.1,0.7,0.9,329.8,0.00,23.4,25.6,"20:50:24",1
"19/07/20","21:10",0.0,24.7,91.8,1007.6,315.2,0.3,1.2,314.5,0.00,23.3,25.5,"21:00:02",1
"19/07/20","21:20",0.0,24.7,91.9,1007.4,322.0,1.0,1.2,308.6,0.00,23.3,25.7,"21:11:04",1
"19/07/20","21:30",0.0,24.6,92.2,1007.6,305.6,0.6,1.2,318.9,0.00,23.3,25.4,"21:29:20",1
"19/07/20","21:40",0.0,24.6,92.3,1007.6,330.0,1.1,1.4,330.2,0.00,23.3,25.4,"21:36:00",1
"19/07/20","21:50",0.0,24.7,92.4,1007.8,328.7,1.0,1.8,335.4,0.00,23.4,25.5,"21:40:56",1
"19/07/20","22:00",0.0,24.6,92.4,1007.8,289.1,0.6,0.9,293.6,0.00,23.3,25.5,"21:54:08",1
"19/07/20","22:10",0.0,24.6,92.6,1008.1,309.0,0.6,1.0,320.8,0.00,23.4,25.2,"22:01:44",1
"19/07/20","22:20",0.0,24.5,92.7,1008.1,305.6,0.5,0.9,336.1,0.00,23.3,25.3,"22:19:52",1
"19/07/20","22:30",0.0,24.6,92.9,1008.1,322.8,0.7,1.1,337.2,0.00,23.4,25.2,"22:21:04",1
"19/07/20","22:40",0.0,24.5,92.9,1008.3,315.5,0.8,1.3,333.4,0.00,23.3,25.1,"22:34:40",1
"19/07/20","22:50",0.0,24.5,93.0,1008.3,316.2,0.7,1.2,335.3,0.00,23.3,25.1,"22:41:12",1
"19/07/20","23:00",0.0,24.5,93.1,1008.3,337.7,0.7,1.4,342.6,0.00,23.4,25.0,"22:54:48",1
"19/07/20","23:10",0.0,24.4,93.1,1008.3,313.5,0.8,1.4,301.1,0.00,23.3,25.2,"23:08:32",1
"19/07/20","23:20",0.0,24.3,93.3,1008.6,336.7,0.6,1.3,334.6,0.00,23.2,25.2,"23:18:32",1
"19/07/20","23:30",0.0,24.3,93.5,1008.3,329.5,0.8,1.3,320.0,0.00,23.2,25.2,"23:24:24",1
"19/07/20","23:40",0.0,24.2,93.5,1008.6,318.7,0.7,1.0,353.7,0.00,23.1,25.1,"23:30:08",1
"19/07/20","23:50",0.0,24.2,93.6,1008.3,310.9,0.7,1.0,325.4,0.00,23.1,24.9,"23:43:20",1
"19/07/20","24:00",0.0,24.1,93.8,1008.3,312.3,0.6,0.9,314.6,0.00,23.1,24.9,"23:50:40",1
